{"data":{"norad_id":52853,"intl_designator":"2022-062Z","name":"STARLINK-4189","alt_names":[],"object_type":"PAYLOAD","status":"ACTIVE","operator":null,"country":"US","launch_date":"2022-06-17","launch_site_code":"AFETR","launch_vehicle":null,"mission":null,"orbit_class":"UNKNOWN","rcs_meters":null,"size_class":null,"mass_kg":null,"dimensions":null,"purposes":["comms"],"wikipedia_slug":null,"has_3d_model":false,"image_url":null,"decayed_at":null,"tle_current":{"epoch":"2026-08-11T00:06:34.067808Z","epoch_age_seconds":3567639,"freshness":"OLD","line1":"1 52853U 22062Z   26223.00456097  .04395230  12188-4  66232-3 0  9993","line2":"2 52853  53.2000  19.4661 0010254 299.5522  60.4501 16.33359621229668","mean_motion":16.33359621,"eccentricity":0.0010254,"inclination_deg":53.2,"raan_deg":19.4661,"arg_perigee_deg":299.5522,"mean_anomaly_deg":60.4501,"bstar":0.00066232,"rev_number":22966,"period_min":88.161846386185,"perigee_km":176.79831876797,"apogee_km":190.25497857867,"semimajor_km":6561.6636486733,"source":"CELESTRAK","updated_at":"2026-08-11T09:01:00.583476Z"}}}